Date String (YYYY-MM-DD hh:mm:ss) UTC,Instrument flags,absolute air pressure of the measurement (hPa),sample flow rate (lpm),inlet stack bypass flow (lpm),air temperature of the measurement (°C),ambient temperature measured by the external sensor (°C),aerosol sample conditioner tube jacket temperature (°C),OPC LED temperature (°C),internal box temperature (°C),relative humidity of the measurement (%),span deviation,mass concentration of particles derived from Lorenz-Mie calculation of OPC scattering (μg/m³),mass concentration of particles derived from Lorenz-Mie calculation of OPC scattering (μg/m³),mass concentration of particles derived from Lorenz-Mie calculation of OPC scattering (μg/m³)
DateTimeUTC,F1_M11,P_M11,Q1_M11,Q2_M11,T1_M11,T2_M11,T3_M11,T4_M11,T5_M11,U1_M11,ZSPAN_M11,X2_M11,X0_M11,X1_M11
2023-06-25 06:00:00,SystemResetWarning,0836.4,5.00,000.00,029.9,028.6,000.0,038.4,031.5,25.3,0000.0,0003.65,0015.32,0001.64
2023-06-25 06:01:00,SystemResetWarning,0836.4,5.00,000.00,030.0,028.4,000.0,038.4,031.6,25.3,0000.0,0003.69,0016.37,0001.64
2023-06-25 06:02:00,SystemResetWarning,0836.3,5.00,000.00,030.0,026.2,000.0,038.3,031.6,25.2,0000.0,0003.76,0016.67,0001.65
2023-06-25 06:03:00,SystemResetWarning,0836.3,5.00,000.00,029.9,024.8,000.0,038.3,031.5,25.3,0000.0,0003.75,0016.75,0001.66
2023-06-25 06:04:00,SystemResetWarning,0836.3,5.00,000.00,029.8,024.8,000.0,038.2,031.1,25.4,0000.0,0003.78,0016.30,0001.67
2023-06-25 06:05:00,SystemResetWarning,0836.2,5.01,000.00,029.7,025.2,000.0,038.2,030.9,25.6,0000.0,0003.78,0016.54,0001.69
2023-06-25 06:06:00,SystemResetWarning,0836.2,5.01,000.00,029.7,025.7,000.0,038.3,030.9,25.7,0000.0,0003.73,0016.44,0001.72
2023-06-25 06:07:00,SystemResetWarning,0836.2,4.99,000.00,029.6,026.2,000.0,038.2,030.9,25.8,0000.0,0003.76,0017.01,0001.74
2023-06-25 06:08:00,SystemResetWarning,0836.2,5.01,000.00,029.6,026.6,000.0,038.2,031.0,25.8,0000.0,0003.80,0017.03,0001.76
2023-06-25 06:09:00,SystemResetWarning,0836.2,5.00,000.00,029.6,026.9,000.0,038.2,031.0,25.8,0000.0,0003.85,0017.10,0001.77
2023-06-25 06:10:00,SystemResetWarning,0836.2,4.98,000.00,029.6,027.2,000.0,038.2,031.1,25.9,0000.0,0003.91,0016.60,0001.78
2023-06-25 06:11:00,SystemResetWarning,0836.2,5.01,000.00,029.6,027.4,000.0,038.2,031.1,25.9,0000.0,0003.92,0017.06,0001.80
2023-06-25 06:12:00,SystemResetWarning,0836.3,5.00,000.00,029.7,027.6,000.0,038.2,031.1,25.9,0000.0,0003.90,0017.19,0001.82
2023-06-25 06:13:00,SystemResetWarning,0836.2,4.98,000.00,029.7,027.8,000.0,038.2,031.2,25.9,0000.0,0003.87,0016.84,0001.83
2023-06-25 06:14:00,SystemResetWarning,0836.3,5.01,000.00,029.7,027.9,000.0,038.2,031.2,25.9,0000.0,0003.87,0016.04,0001.83
2023-06-25 06:15:00,SystemResetWarning,0836.3,5.01,000.00,029.7,028.0,000.0,038.2,031.3,25.9,0000.0,0003.83,0015.80,0001.83
2023-06-25 06:16:00,SystemResetWarning,0836.4,5.01,000.00,029.7,028.1,000.0,038.2,031.3,25.9,0000.0,0003.83,0015.11,0001.83
2023-06-25 06:17:00,SystemResetWarning,0836.4,4.99,000.00,029.8,028.2,000.0,038.3,031.3,25.8,0000.0,0003.88,0015.67,0001.82
2023-06-25 06:18:00,SystemResetWarning,0836.4,5.00,000.00,029.8,028.3,000.0,038.3,031.4,25.8,0000.0,0003.88,0015.39,0001.82
2023-06-25 06:19:00,SystemResetWarning,0836.4,5.00,000.00,029.8,028.3,000.0,038.3,031.4,25.8,0000.0,0003.84,0014.90,0001.82
2023-06-25 06:20:00,SystemResetWarning,0836.4,5.00,000.00,029.8,028.4,000.0,038.3,031.4,25.7,0000.0,0003.81,0014.41,0001.83
2023-06-25 06:21:00,SystemResetWarning,0836.4,5.01,000.00,029.9,028.4,000.0,038.3,031.4,25.7,0000.0,0003.72,0014.14,0001.81
2023-06-25 06:22:00,SystemResetWarning,0836.4,5.01,000.00,029.9,028.4,000.0,038.3,031.4,25.7,0000.0,0003.67,0013.04,0001.79
2023-06-25 06:23:00,SystemResetWarning,0836.4,5.00,000.00,029.9,028.5,000.0,038.3,031.5,25.6,0000.0,0003.64,0011.77,0001.76
2023-06-25 06:24:00,SystemResetWarning,0836.4,5.00,000.00,029.9,028.5,000.0,038.4,031.5,25.6,0000.0,0003.57,0011.94,0001.73
2023-06-25 06:25:00,SystemResetWarning,0836.4,5.00,000.00,030.0,028.6,000.0,038.4,031.6,25.6,0000.0,0003.54,0012.46,0001.72
2023-06-25 06:26:00,SystemResetWarning,0836.4,5.00,000.00,030.0,028.6,000.0,038.4,031.6,25.6,0000.0,0003.55,0012.88,0001.71
2023-06-25 06:27:00,SystemResetWarning,0836.4,4.99,000.00,030.0,028.5,000.0,038.4,031.6,25.6,0000.0,0003.54,0013.46,0001.68
2023-06-25 06:28:00,SystemResetWarning,0836.3,4.99,000.00,030.0,026.6,000.0,038.4,031.6,25.5,0000.0,0003.57,0012.72,0001.65
2023-06-25 06:29:00,SystemResetWarning,0836.3,5.01,000.00,030.0,024.9,000.0,038.3,031.5,25.6,0000.0,0003.55,0012.34,0001.64
2023-06-25 06:30:00,SystemResetWarning,0836.2,5.00,000.00,029.9,024.8,000.0,038.3,031.2,25.7,0000.0,0003.55,0012.32,0001.63
2023-06-25 06:31:00,SystemResetWarning,0836.3,5.01,000.00,029.8,025.2,000.0,038.3,031.0,25.9,0000.0,0003.52,0012.07,0001.61
2023-06-25 06:32:00,SystemResetWarning,0836.2,4.99,000.00,029.7,025.7,000.0,038.3,031.0,26.0,0000.0,0003.56,0012.25,0001.61
2023-06-25 06:33:00,SystemResetWarning,0836.3,4.99,000.00,029.7,026.1,000.0,038.3,031.0,26.1,0000.0,0003.60,0012.57,0001.62
2023-06-25 06:34:00,SystemResetWarning,0836.2,4.99,000.00,029.7,026.5,000.0,038.3,031.0,26.1,0000.0,0003.61,0012.57,0001.61
2023-06-25 06:35:00,SystemResetWarning,0836.2,5.00,000.00,029.7,026.9,000.0,038.3,031.0,26.1,0000.0,0003.66,0012.54,0001.62
2023-06-25 06:36:00,SystemResetWarning,0836.2,5.01,000.00,029.7,027.2,000.0,038.3,031.1,26.1,0000.0,0003.72,0012.03,0001.62
2023-06-25 06:37:00,SystemResetWarning,0836.2,5.01,000.00,029.7,027.4,000.0,038.3,031.1,26.1,0000.0,0003.74,0012.78,0001.62
2023-06-25 06:38:00,SystemResetWarning,0836.2,5.00,000.00,029.7,027.6,000.0,038.3,031.1,26.1,0000.0,0003.72,0011.80,0001.64
2023-06-25 06:39:00,SystemResetWarning,0836.3,4.99,000.00,029.7,027.8,000.0,038.3,031.2,26.1,0000.0,0003.66,0011.59,0001.64
2023-06-25 06:40:00,SystemResetWarning,0836.3,5.00,000.00,029.7,027.9,000.0,038.3,031.2,26.1,0000.0,0003.62,0011.35,0001.64
2023-06-25 06:41:00,SystemResetWarning,0836.2,5.00,000.00,029.7,028.0,000.0,038.3,031.2,26.1,0000.0,0003.56,0010.99,0001.64
2023-06-25 06:42:00,SystemResetWarning,0836.2,5.00,000.00,029.8,028.1,000.0,038.3,031.3,26.1,0000.0,0003.53,0011.22,0001.65
2023-06-25 06:43:00,SystemResetWarning,0836.2,5.00,000.00,029.8,028.2,000.0,038.3,031.3,26.1,0000.0,0003.52,0011.42,0001.66
2023-06-25 06:44:00,SystemResetWarning,0836.3,4.99,000.00,029.8,028.3,000.0,038.3,031.4,26.1,0000.0,0003.47,0011.11,0001.64
2023-06-25 06:45:00,SystemResetWarning,0836.3,4.99,000.00,029.8,028.4,000.0,038.3,031.4,26.1,0000.0,0003.42,0010.97,0001.64
2023-06-25 06:46:00,SystemResetWarning,0836.3,5.00,000.00,029.9,028.4,000.0,038.3,031.4,26.0,0000.0,0003.42,0010.75,0001.64
2023-06-25 06:47:00,SystemResetWarning,0836.3,5.00,000.00,029.9,028.5,000.0,038.3,031.5,25.9,0000.0,0003.34,0010.60,0001.64
2023-06-25 06:48:00,SystemResetWarning,0836.3,5.01,000.00,029.9,028.5,000.0,038.4,031.5,25.9,0000.0,0003.27,0009.39,0001.63
2023-06-25 06:49:00,SystemResetWarning,0836.3,5.01,000.00,029.9,028.5,000.0,038.4,031.5,25.9,0000.0,0003.28,0009.00,0001.62
2023-06-25 06:50:00,SystemResetWarning,0836.2,5.00,000.00,030.0,028.6,000.0,038.4,031.6,25.8,0000.0,0003.25,0009.23,0001.62
2023-06-25 06:51:00,SystemResetWarning,0836.3,5.00,000.00,030.0,028.6,000.0,038.4,031.6,25.8,0000.0,0003.26,0009.87,0001.62
2023-06-25 06:52:00,SystemResetWarning,0836.3,5.01,000.00,030.0,028.6,000.0,038.5,031.6,25.8,0000.0,0003.28,0010.41,0001.61
2023-06-25 06:53:00,SystemResetWarning,0836.2,5.00,000.00,030.0,028.7,000.0,038.5,031.6,25.8,0000.0,0003.30,0010.63,0001.59
2023-06-25 06:54:00,SystemResetWarning,0836.2,5.00,000.00,030.1,028.7,000.0,038.5,031.7,25.7,0000.0,0003.29,0010.80,0001.57
2023-06-25 06:55:00,SystemResetWarning,0836.2,5.00,000.00,030.1,028.7,000.0,038.5,031.7,25.7,0000.0,0003.25,0011.38,0001.57
2023-06-25 06:56:00,SystemResetWarning,0836.2,4.99,000.00,030.1,028.4,000.0,038.5,031.7,25.6,0000.0,0003.24,0011.39,0001.56
2023-06-25 06:57:00,SystemResetWarning,0836.2,5.00,000.00,030.1,026.1,000.0,038.5,031.7,25.6,0000.0,0003.24,0011.78,0001.56
2023-06-25 06:58:00,SystemResetWarning,0836.1,5.01,000.00,030.1,024.7,000.0,038.4,031.6,25.6,0000.0,0003.20,0011.45,0001.55
2023-06-25 06:59:00,SystemResetWarning,0836.1,5.00,000.00,029.9,024.8,000.0,038.4,031.1,25.8,0000.0,0003.27,0011.99,0001.55
